Time,TemperatureF,DewpointF,PressureIn,WindDirection,WindDirectionDegrees,WindSpeedMPH,WindSpeedGustMPH,Humidity,HourlyPrecipIn,Conditions,Clouds,dailyrainin,SoftwareType,DateUTC
2013-04-18 00:01:00,41.4,34.4,30.28,SE,129,0.0,1.0,76,0.00,,CLR,0.00,VWS V14.01,2013-04-18 04:01:00,
2013-04-18 00:02:00,41.5,34.5,30.28,SE,128,0.0,1.0,76,0.00,,CLR,0.00,VWS V14.01,2013-04-18 04:02:00,
2013-04-18 00:03:00,41.4,34.4,30.28,SE,128,0.0,0.0,76,0.00,,CLR,0.00,VWS V14.01,2013-04-18 04:03:00,
2013-04-18 00:08:00,41.4,33.8,30.27,SE,127,0.0,0.0,74,0.00,,CLR,0.00,VWS V14.01,2013-04-18 04:08:00,
2013-04-18 00:13:00,41.6,33.9,30.28,NE,48,0.0,0.0,74,0.00,,CLR,0.00,VWS V14.01,2013-04-18 04:13:00,
2013-04-18 00:18:00,41.4,33.8,30.27,NE,49,0.0,0.0,74,0.00,,CLR,0.00,VWS V14.01,2013-04-18 04:18:00,
2013-04-18 00:23:00,41.3,33.7,30.26,NE,49,0.0,0.0,74,0.00,,CLR,0.00,VWS V14.01,2013-04-18 04:23:00,
2013-04-18 00:28:00,41.2,33.9,30.25,NE,49,0.0,0.0,75,0.00,,CLR,0.00,VWS V14.01,2013-04-18 04:28:00,
2013-04-18 00:33:00,41.2,34.5,30.25,NE,49,0.0,0.0,77,0.00,,CLR,0.00,VWS V14.01,2013-04-18 04:33:00,
2013-04-18 00:38:00,40.9,34.3,30.25,NE,50,0.0,0.0,77,0.00,,CLR,0.00,VWS V14.01,2013-04-18 04:38:00,
2013-04-18 00:43:00,40.6,34.3,30.25,NE,50,0.0,0.0,78,0.00,,CLR,0.00,VWS V14.01,2013-04-18 04:43:00,
2013-04-18 00:48:00,40.5,34.5,30.24,NE,50,0.0,0.0,79,0.00,,CLR,0.00,VWS V14.01,2013-04-18 04:48:00,
2013-04-18 00:54:00,40.4,34.7,30.24,NE,49,0.0,0.0,80,0.00,,CLR,0.00,VWS V14.01,2013-04-18 04:54:00,
2013-04-18 00:59:00,40.1,34.8,30.24,NE,49,0.0,0.0,81,0.00,,CLR,0.00,VWS V14.01,2013-04-18 04:59:00,
2013-04-18 01:04:00,39.9,34.5,30.24,NE,49,0.0,0.0,81,0.00,,CLR,0.00,VWS V14.01,2013-04-18 05:04:00,
2013-04-18 01:09:00,39.9,34.5,30.24,NE,51,0.0,0.0,81,0.00,,CLR,0.00,VWS V14.01,2013-04-18 05:09:00,
2013-04-18 01:14:00,40.4,35.0,30.24,ESE,113,0.0,1.0,81,0.00,,CLR,0.00,VWS V14.01,2013-04-18 05:14:00,
2013-04-18 01:19:00,40.3,34.9,30.25,ESE,113,0.0,1.0,81,0.00,,CLR,0.00,VWS V14.01,2013-04-18 05:19:00,
2013-04-18 01:24:00,40.3,34.6,30.25,ESE,113,0.0,1.0,80,0.00,,CLR,0.00,VWS V14.01,2013-04-18 05:24:00,
2013-04-18 01:29:00,40.5,34.2,30.25,ESE,113,0.0,1.0,78,0.00,,CLR,0.00,VWS V14.01,2013-04-18 05:29:00,
2013-04-18 01:34:00,40.8,34.5,30.25,East,81,0.0,0.0,78,0.00,,CLR,0.00,VWS V14.01,2013-04-18 05:34:00,
2013-04-18 01:39:00,40.9,34.6,30.25,ESE,113,0.0,0.0,78,0.00,,CLR,0.00,VWS V14.01,2013-04-18 05:39:00,
2013-04-18 01:44:00,40.8,35.7,30.25,ESE,123,0.0,1.0,82,0.00,,CLR,0.00,VWS V14.01,2013-04-18 05:44:00,
2013-04-18 01:49:00,40.5,35.8,30.24,SE,129,0.0,1.0,83,0.00,,CLR,0.00,VWS V14.01,2013-04-18 05:49:00,
2013-04-18 01:54:00,40.3,36.2,30.23,SE,134,0.0,1.0,85,0.00,,CLR,0.00,VWS V14.01,2013-04-18 05:54:00,
2013-04-18 02:00:00,40.4,36.3,30.22,SE,125,0.0,2.0,85,0.00,,CLR,0.00,VWS V14.01,2013-04-18 06:00:00,
2013-04-18 02:05:00,40.7,36.2,30.22,ESE,122,0.0,0.0,84,0.00,,CLR,0.00,VWS V14.01,2013-04-18 06:05:00,
2013-04-18 02:10:00,41.3,35.9,30.22,SE,129,0.0,1.0,81,0.00,,CLR,0.00,VWS V14.01,2013-04-18 06:10:00,
2013-04-18 02:15:00,41.9,35.9,30.22,ESE,108,0.0,1.0,79,0.00,,CLR,0.00,VWS V14.01,2013-04-18 06:15:00,
2013-04-18 02:20:00,42.4,35.0,30.22,SE,124,0.0,1.0,75,0.00,,CLR,0.00,VWS V14.01,2013-04-18 06:20:00,
2013-04-18 02:25:00,43.2,34.5,30.21,East,98,2.0,4.0,71,0.00,,CLR,0.00,VWS V14.01,2013-04-18 06:25:00,
2013-04-18 02:30:00,43.7,34.9,30.20,SE,134,1.0,4.0,71,0.00,,CLR,0.00,VWS V14.01,2013-04-18 06:30:00,
2013-04-18 02:35:00,43.6,34.8,30.21,ESE,115,1.0,1.0,71,0.00,,CLR,0.00,VWS V14.01,2013-04-18 06:35:00,
2013-04-18 02:40:00,43.5,34.7,30.19,SW,231,1.0,2.0,71,0.00,,CLR,0.00,VWS V14.01,2013-04-18 06:40:00,
2013-04-18 02:45:00,43.5,34.7,30.19,SW,215,0.0,2.0,71,0.00,,BKN110,0.00,VWS V14.01,2013-04-18 06:45:00,
2013-04-18 02:50:00,43.1,35.4,30.18,SW,219,1.0,2.0,74,0.00,,BKN110,0.00,VWS V14.01,2013-04-18 06:50:00,
2013-04-18 02:55:00,42.6,35.6,30.18,SW,222,0.0,2.0,76,0.00,,BKN110,0.00,VWS V14.01,2013-04-18 06:55:00,
2013-04-18 03:01:00,42.6,34.9,30.18,NNW,347,1.0,2.0,74,0.00,,BKN110,0.00,VWS V14.01,2013-04-18 07:01:00,
2013-04-18 03:06:00,43.4,35.0,30.17,West,277,0.0,3.0,72,0.00,,BKN110,0.00,VWS V14.01,2013-04-18 07:06:00,
2013-04-18 03:11:00,44.7,34.8,30.17,WNW,301,0.0,3.0,68,0.00,,BKN110,0.00,VWS V14.01,2013-04-18 07:11:00,
2013-04-18 03:16:00,45.3,35.0,30.16,NE,37,0.0,3.0,67,0.00,,BKN110,0.00,VWS V14.01,2013-04-18 07:16:00,
2013-04-18 03:21:00,45.2,35.7,30.16,East,87,0.0,3.0,69,0.00,,BKN110,0.00,VWS V14.01,2013-04-18 07:21:00,
2013-04-18 03:26:00,44.8,35.3,30.15,NE,47,0.0,3.0,69,0.00,,BKN110,0.00,VWS V14.01,2013-04-18 07:26:00,
2013-04-18 03:31:00,44.8,35.3,30.14,NNW,337,1.0,3.0,69,0.00,,BKN110,0.00,VWS V14.01,2013-04-18 07:31:00,
2013-04-18 03:36:00,45.0,35.1,30.15,North,354,2.0,2.0,68,0.00,,BKN110,0.00,VWS V14.01,2013-04-18 07:36:00,
2013-04-18 03:42:00,45.0,35.8,30.15,North,353,1.0,2.0,70,0.00,,BKN110,0.00,VWS V14.01,2013-04-18 07:42:00,
2013-04-18 03:47:00,44.9,35.7,30.15,NW,321,0.0,2.0,70,0.00,,FEW095,0.00,VWS V14.01,2013-04-18 07:47:00,
2013-04-18 03:52:00,45.1,35.5,30.14,SW,231,2.0,3.0,69,0.00,,FEW095,0.00,VWS V14.01,2013-04-18 07:52:00,
2013-04-18 03:57:00,45.7,35.8,30.14,South,177,0.0,3.0,68,0.00,,FEW095,0.00,VWS V14.01,2013-04-18 07:57:00,
2013-04-18 04:02:00,46.1,35.8,30.14,South,177,0.0,3.0,67,0.00,,FEW095,0.00,VWS V14.01,2013-04-18 08:02:00,
2013-04-18 04:07:00,46.6,35.9,30.14,SSW,200,1.0,3.0,66,0.00,,FEW095,0.00,VWS V14.01,2013-04-18 08:07:00,
2013-04-18 04:12:00,47.2,36.0,30.13,South,191,1.0,3.0,65,0.00,,FEW095,0.00,VWS V14.01,2013-04-18 08:12:00,
2013-04-18 04:17:00,47.6,36.4,30.13,SSE,152,2.0,4.0,65,0.00,,FEW095,0.00,VWS V14.01,2013-04-18 08:17:00,
2013-04-18 04:22:00,47.9,36.3,30.13,SSE,155,1.0,4.0,64,0.00,,FEW095,0.00,VWS V14.01,2013-04-18 08:22:00,
2013-04-18 04:27:00,48.1,36.5,30.13,South,187,0.0,4.0,64,0.00,,FEW095,0.00,VWS V14.01,2013-04-18 08:27:00,
2013-04-18 04:32:00,48.2,36.6,30.13,South,191,2.0,4.0,64,0.00,,FEW095,0.00,VWS V14.01,2013-04-18 08:32:00,
2013-04-18 04:38:00,48.5,36.9,30.12,SE,135,1.0,5.0,64,0.00,,FEW095,0.00,VWS V14.01,2013-04-18 08:38:00,
2013-04-18 04:43:00,48.5,37.3,30.11,ESE,113,3.0,5.0,65,0.00,,FEW095,0.00,VWS V14.01,2013-04-18 08:43:00,
2013-04-18 04:48:00,48.5,37.7,30.11,East,89,1.0,5.0,66,0.00,,CLR,0.00,VWS V14.01,2013-04-18 08:48:00,
2013-04-18 04:53:00,48.2,38.2,30.12,ESE,109,0.0,5.0,68,0.00,,CLR,0.00,VWS V14.01,2013-04-18 08:53:00,
2013-04-18 04:58:00,48.2,37.4,30.11,South,179,1.0,5.0,66,0.00,,CLR,0.00,VWS V14.01,2013-04-18 08:58:00,
2013-04-18 05:03:00,48.5,37.3,30.11,SE,134,2.0,2.0,65,0.00,,CLR,0.00,VWS V14.01,2013-04-18 09:03:00,
2013-04-18 05:08:00,48.9,37.7,30.12,SSE,154,1.0,4.0,65,0.00,,CLR,0.00,VWS V14.01,2013-04-18 09:08:00,
2013-04-18 05:13:00,49.0,37.8,30.11,SSW,197,1.0,4.0,65,0.00,,CLR,0.00,VWS V14.01,2013-04-18 09:13:00,
2013-04-18 05:18:00,49.3,37.2,30.11,SE,129,0.0,4.0,63,0.00,,CLR,0.00,VWS V14.01,2013-04-18 09:18:00,
2013-04-18 05:23:00,49.6,37.5,30.11,SSW,203,2.0,4.0,63,0.00,,CLR,0.00,VWS V14.01,2013-04-18 09:23:00,
2013-04-18 05:28:00,49.9,37.4,30.11,SW,228,2.0,4.0,62,0.00,,CLR,0.00,VWS V14.01,2013-04-18 09:28:00,
2013-04-18 05:33:00,50.2,37.7,30.11,ESE,121,4.0,4.0,62,0.00,,CLR,0.00,VWS V14.01,2013-04-18 09:33:00,
2013-04-18 05:38:00,50.5,37.6,30.11,South,190,4.0,6.0,61,0.00,,CLR,0.00,VWS V14.01,2013-04-18 09:38:00,
2013-04-18 05:43:00,50.9,38.0,30.11,SSW,194,3.0,6.0,61,0.00,,CLR,0.00,VWS V14.01,2013-04-18 09:43:00,
2013-04-18 05:49:00,51.1,37.7,30.11,SW,217,3.0,6.0,60,0.00,,OVC100,0.00,VWS V14.01,2013-04-18 09:49:00,
2013-04-18 05:54:00,51.2,37.4,30.11,South,179,2.0,6.0,59,0.00,,OVC100,0.00,VWS V14.01,2013-04-18 09:54:00,
2013-04-18 05:59:00,51.5,38.1,30.11,SSE,155,5.0,6.0,60,0.00,,OVC100,0.00,VWS V14.01,2013-04-18 09:59:00,
2013-04-18 06:04:00,51.6,37.8,30.11,South,186,4.0,7.0,59,0.00,,OVC100,0.00,VWS V14.01,2013-04-18 10:04:00,
2013-04-18 06:09:00,51.8,37.9,30.11,SSE,165,2.0,7.0,59,0.00,,OVC100,0.00,VWS V14.01,2013-04-18 10:09:00,
2013-04-18 06:14:00,51.9,38.0,30.11,SSW,205,3.0,7.0,59,0.00,,OVC100,0.00,VWS V14.01,2013-04-18 10:14:00,
2013-04-18 06:19:00,52.0,38.1,30.10,SE,134,3.0,7.0,59,0.00,,CLR,0.00,VWS V14.01,2013-04-18 10:19:00,
2013-04-18 06:24:00,52.0,38.1,30.10,SSW,201,6.0,7.0,59,0.00,,CLR,0.00,VWS V14.01,2013-04-18 10:24:00,
2013-04-18 06:29:00,52.1,38.2,30.11,SSE,167,4.0,8.0,59,0.00,,CLR,0.00,VWS V14.01,2013-04-18 10:29:00,
2013-04-18 06:34:00,51.9,38.0,30.10,SW,215,4.0,7.0,59,0.00,,CLR,0.00,VWS V14.01,2013-04-18 10:34:00,
2013-04-18 06:39:00,52.0,38.6,30.10,SSW,205,5.0,8.0,60,0.00,,CLR,0.00,VWS V14.01,2013-04-18 10:39:00,
2013-04-18 06:44:00,52.1,38.7,30.10,SSE,163,2.0,8.0,60,0.00,,CLR,0.00,VWS V14.01,2013-04-18 10:44:00,
2013-04-18 06:49:00,52.2,38.8,30.10,SE,142,4.0,8.0,60,0.00,,OVC090,0.00,VWS V14.01,2013-04-18 10:49:00,
2013-04-18 06:55:00,52.3,38.8,30.10,South,191,3.0,8.0,60,0.00,,OVC090,0.00,VWS V14.01,2013-04-18 10:55:00,
2013-04-18 07:00:00,52.5,39.5,30.09,South,181,4.0,8.0,61,0.00,,OVC090,0.00,VWS V14.01,2013-04-18 11:00:00,
2013-04-18 07:05:00,52.6,39.5,30.09,SW,217,4.0,5.0,61,0.00,,OVC090,0.00,VWS V14.01,2013-04-18 11:05:00,
2013-04-18 07:10:00,52.7,40.1,30.09,SSE,150,3.0,7.0,62,0.00,,OVC090,0.00,VWS V14.01,2013-04-18 11:10:00,
2013-04-18 07:15:00,52.9,40.7,30.09,SSW,193,3.0,7.0,63,0.00,,OVC090,0.00,VWS V14.01,2013-04-18 11:15:00,
2013-04-18 07:20:00,53.2,41.0,30.09,SW,216,3.0,7.0,63,0.00,,OVC090,0.00,VWS V14.01,2013-04-18 11:20:00,
2013-04-18 07:25:00,53.4,41.1,30.09,South,190,3.0,7.0,63,0.00,,OVC090,0.00,VWS V14.01,2013-04-18 11:25:00,
2013-04-18 07:30:00,54.0,41.7,30.09,SSE,167,4.0,7.0,63,0.00,,OVC090,0.00,VWS V14.01,2013-04-18 11:30:00,
2013-04-18 07:36:00,54.4,42.5,30.09,South,190,2.0,4.0,64,0.00,,OVC090,0.00,VWS V14.01,2013-04-18 11:36:00,
2013-04-18 07:41:00,54.8,43.3,30.09,SSW,211,4.0,4.0,65,0.00,,OVC090,0.00,VWS V14.01,2013-04-18 11:41:00,
2013-04-18 07:46:00,55.1,43.6,30.09,SW,225,3.0,6.0,65,0.00,,BKN100,0.00,VWS V14.01,2013-04-18 11:46:00,
2013-04-18 07:51:00,55.4,43.8,30.08,SSW,203,0.0,6.0,65,0.00,,BKN100,0.00,VWS V14.01,2013-04-18 11:51:00,
2013-04-18 07:56:00,55.6,44.4,30.08,SSW,193,1.0,6.0,66,0.00,,BKN100,0.00,VWS V14.01,2013-04-18 11:56:00,
2013-04-18 08:01:00,55.9,45.1,30.08,SSW,208,2.0,6.0,67,0.00,,BKN100,0.00,VWS V14.01,2013-04-18 12:01:00,
2013-04-18 08:06:00,56.2,44.6,30.08,SSW,205,2.0,4.0,65,0.00,,BKN100,0.00,VWS V14.01,2013-04-18 12:06:00,
2013-04-18 08:11:00,56.5,45.7,30.08,SW,225,6.0,6.0,67,0.00,,BKN100,0.00,VWS V14.01,2013-04-18 12:11:00,
2013-04-18 08:17:00,56.9,46.1,30.08,SW,218,6.0,9.0,67,0.00,,BKN100,0.00,VWS V14.01,2013-04-18 12:17:00,
2013-04-18 08:22:00,57.2,47.1,30.08,SSW,211,6.0,11.0,69,0.00,,BKN100,0.00,VWS V14.01,2013-04-18 12:22:00,
2013-04-18 08:27:00,57.8,48.1,30.08,SSW,203,5.0,17.0,70,0.00,,BKN100,0.00,VWS V14.01,2013-04-18 12:27:00,
2013-04-18 08:32:00,58.2,48.5,30.08,SSW,200,4.0,17.0,70,0.00,,BKN100,0.00,VWS V14.01,2013-04-18 12:32:00,
2013-04-18 08:37:00,58.6,49.2,30.08,SSW,193,8.0,13.0,71,0.00,,BKN100,0.00,VWS V14.01,2013-04-18 12:37:00,
2013-04-18 08:42:00,59.0,49.6,30.08,SSW,212,9.0,13.0,71,0.00,,BKN100,0.00,VWS V14.01,2013-04-18 12:42:00,
2013-04-18 08:47:00,59.4,50.0,30.07,SW,225,8.0,15.0,71,0.00,,BKN100,0.00,VWS V14.01,2013-04-18 12:47:00,
2013-04-18 08:52:00,59.8,50.4,30.07,SW,222,7.0,15.0,71,0.00,,BKN100,0.00,VWS V14.01,2013-04-18 12:52:00,
2013-04-18 08:57:00,60.3,50.9,30.08,SW,236,13.0,15.0,71,0.00,,BKN100,0.00,VWS V14.01,2013-04-18 12:57:00,
2013-04-18 09:02:00,60.5,51.1,30.07,WNW,300,5.0,15.0,71,0.00,,BKN100,0.00,VWS V14.01,2013-04-18 13:02:00,
2013-04-18 09:07:00,60.7,51.6,30.07,SW,236,8.0,14.0,72,0.00,,BKN100,0.00,VWS V14.01,2013-04-18 13:07:00,
2013-04-18 09:13:00,60.9,51.8,30.07,SW,222,10.0,15.0,72,0.00,,BKN100,0.00,VWS V14.01,2013-04-18 13:13:00,
2013-04-18 09:18:00,61.1,52.4,30.06,WSW,238,12.0,17.0,73,0.00,,BKN100,0.00,VWS V14.01,2013-04-18 13:18:00,
2013-04-18 09:23:00,61.2,52.5,30.06,SSW,210,7.0,17.0,73,0.00,,BKN100,0.00,VWS V14.01,2013-04-18 13:23:00,
2013-04-18 09:28:00,61.4,52.7,30.06,SSW,209,7.0,17.0,73,0.00,,BKN100,0.00,VWS V14.01,2013-04-18 13:28:00,
2013-04-18 09:33:00,61.6,52.9,30.06,SW,236,12.0,14.0,73,0.00,,FEW028,0.00,VWS V14.01,2013-04-18 13:33:00,
2013-04-18 09:38:00,61.7,53.0,30.06,SW,226,11.0,20.0,73,0.00,,FEW028,0.00,VWS V14.01,2013-04-18 13:38:00,
2013-04-18 09:43:00,61.9,53.2,30.05,SW,232,15.0,20.0,73,0.00,,FEW028,0.00,VWS V14.01,2013-04-18 13:43:00,
2013-04-18 09:48:00,62.4,53.6,30.05,SW,233,11.0,20.0,73,0.00,,BKN027,0.00,VWS V14.01,2013-04-18 13:48:00,
2013-04-18 09:53:00,63.1,53.9,30.05,SW,222,11.0,20.0,72,0.00,,BKN027,0.00,VWS V14.01,2013-04-18 13:53:00,
2013-04-18 09:58:00,63.4,54.2,30.04,SW,223,7.0,20.0,72,0.00,,BKN027,0.00,VWS V14.01,2013-04-18 13:58:00,
2013-04-18 10:03:00,63.7,54.1,30.05,WSW,239,7.0,9.0,71,0.00,,BKN027,0.00,VWS V14.01,2013-04-18 14:03:00,
2013-04-18 10:08:00,63.9,54.3,30.05,SSW,212,8.0,12.0,71,0.00,,BKN027,0.00,VWS V14.01,2013-04-18 14:08:00,
2013-04-18 10:13:00,63.9,53.9,30.04,SSW,204,6.0,12.0,70,0.00,,BKN027,0.00,VWS V14.01,2013-04-18 14:13:00,
2013-04-18 10:18:00,64.0,54.4,30.04,South,191,8.0,12.0,71,0.00,,BKN027,0.00,VWS V14.01,2013-04-18 14:18:00,
2013-04-18 10:24:00,64.1,54.5,30.04,SSW,205,5.0,14.0,71,0.00,,BKN027,0.00,VWS V14.01,2013-04-18 14:24:00,
2013-04-18 10:29:00,64.4,54.4,30.03,South,181,4.0,14.0,70,0.00,,BKN027,0.00,VWS V14.01,2013-04-18 14:29:00,
2013-04-18 10:34:00,64.6,54.2,30.03,SSW,210,7.0,13.0,69,0.00,,BKN027,0.00,VWS V14.01,2013-04-18 14:34:00,
2013-04-18 10:39:00,64.8,54.4,30.03,SSW,205,7.0,16.0,69,0.00,,BKN027,0.00,VWS V14.01,2013-04-18 14:39:00,
2013-04-18 10:44:00,65.2,54.4,30.03,SSW,200,6.0,16.0,68,0.00,,BKN027,0.00,VWS V14.01,2013-04-18 14:44:00,
2013-04-18 10:49:00,65.8,55.0,30.03,SW,216,3.0,16.0,68,0.00,,SCT027,0.00,VWS V14.01,2013-04-18 14:49:00,
2013-04-18 10:54:00,66.0,54.3,30.02,SSW,194,6.0,16.0,66,0.00,,SCT027,0.00,VWS V14.01,2013-04-18 14:54:00,
2013-04-18 11:00:00,66.0,55.2,30.02,SW,222,10.0,16.0,68,0.00,,SCT027,0.00,VWS V14.01,2013-04-18 15:00:00,
2013-04-18 11:05:00,66.0,54.3,30.02,SW,216,11.0,11.0,66,0.00,,SCT027,0.00,VWS V14.01,2013-04-18 15:05:00,
2013-04-18 11:10:00,66.5,54.4,30.02,SSW,200,11.0,15.0,65,0.00,,SCT027,0.00,VWS V14.01,2013-04-18 15:10:00,
2013-04-18 11:15:00,67.1,54.5,30.01,SSW,193,6.0,15.0,64,0.00,,SCT027,0.00,VWS V14.01,2013-04-18 15:15:00,
2013-04-18 11:20:00,67.5,54.0,30.01,SW,229,13.0,23.0,62,0.00,,SCT027,0.00,VWS V14.01,2013-04-18 15:20:00,
2013-04-18 11:25:00,67.6,53.7,30.01,SSW,204,9.0,23.0,61,0.00,,SCT027,0.00,VWS V14.01,2013-04-18 15:25:00,
2013-04-18 11:30:00,67.7,54.2,30.01,SSW,208,7.0,23.0,62,0.00,,SCT027,0.00,VWS V14.01,2013-04-18 15:30:00,
2013-04-18 11:35:00,68.0,54.1,30.00,SW,230,10.0,18.0,61,0.00,,CLR,0.00,VWS V14.01,2013-04-18 15:35:00,
2013-04-18 11:40:00,68.3,54.8,30.00,SW,218,9.0,19.0,62,0.00,,CLR,0.00,VWS V14.01,2013-04-18 15:40:00,
2013-04-18 11:45:00,69.0,55.0,30.00,SSW,205,11.0,19.0,61,0.00,,CLR,0.00,VWS V14.01,2013-04-18 15:45:00,
2013-04-18 11:50:00,69.0,54.5,30.00,SW,217,11.0,19.0,60,0.00,,CLR,0.00,VWS V14.01,2013-04-18 15:50:00,
2013-04-18 11:55:00,69.4,54.9,30.00,WSW,243,18.0,22.0,60,0.00,,CLR,0.00,VWS V14.01,2013-04-18 15:55:00,
2013-04-18 12:01:00,69.6,53.7,30.00,SW,235,10.0,22.0,57,0.00,,CLR,0.00,VWS V14.01,2013-04-18 16:01:00,
2013-04-18 12:06:00,69.7,54.3,30.00,SW,231,17.0,17.0,58,0.00,,CLR,0.00,VWS V14.01,2013-04-18 16:06:00,
2013-04-18 12:11:00,69.5,54.1,30.00,SSW,193,9.0,17.0,58,0.00,,CLR,0.00,VWS V14.01,2013-04-18 16:11:00,
2013-04-18 12:16:00,69.5,55.0,29.99,SSW,203,6.0,17.0,60,0.00,,CLR,0.00,VWS V14.01,2013-04-18 16:16:00,
2013-04-18 12:21:00,70.2,54.8,29.99,SW,236,13.0,17.0,58,0.00,,CLR,0.00,VWS V14.01,2013-04-18 16:21:00,
2013-04-18 12:27:00,70.2,53.8,29.99,SW,224,14.0,19.0,56,0.00,,CLR,0.00,VWS V14.01,2013-04-18 16:27:00,
2013-04-18 12:32:00,69.5,53.6,29.99,WSW,246,13.0,24.0,57,0.00,,CLR,0.00,VWS V14.01,2013-04-18 16:32:00,
2013-04-18 12:37:00,69.6,54.2,29.99,SSW,200,14.0,20.0,58,0.00,,CLR,0.00,VWS V14.01,2013-04-18 16:37:00,
2013-04-18 12:42:00,69.6,53.7,29.98,SW,229,21.0,22.0,57,0.00,,CLR,0.00,VWS V14.01,2013-04-18 16:42:00,
2013-04-18 12:47:00,69.2,53.8,29.99,SW,235,13.0,22.0,58,0.00,,CLR,0.00,VWS V14.01,2013-04-18 16:47:00,
2013-04-18 12:52:00,69.3,53.4,29.98,SW,215,6.0,22.0,57,0.00,,CLR,0.00,VWS V14.01,2013-04-18 16:52:00,
2013-04-18 12:57:00,69.7,53.8,29.98,WSW,238,10.0,22.0,57,0.00,,CLR,0.00,VWS V14.01,2013-04-18 16:57:00,
2013-04-18 13:02:00,69.6,53.2,29.98,South,184,8.0,22.0,56,0.00,,CLR,0.00,VWS V14.01,2013-04-18 17:02:00,
2013-04-18 13:07:00,70.1,54.7,29.98,WSW,238,13.0,13.0,58,0.00,,CLR,0.00,VWS V14.01,2013-04-18 17:07:00,
2013-04-18 13:12:00,70.2,53.3,29.98,SSE,148,12.0,17.0,55,0.00,,CLR,0.00,VWS V14.01,2013-04-18 17:12:00,
2013-04-18 13:18:00,70.0,53.1,29.97,South,180,14.0,18.0,55,0.00,,CLR,0.00,VWS V14.01,2013-04-18 17:18:00,
2013-04-18 13:23:00,70.2,53.3,29.97,SSW,195,6.0,18.0,55,0.00,,CLR,0.00,VWS V14.01,2013-04-18 17:23:00,
2013-04-18 13:28:00,71.1,54.1,29.96,SSW,211,10.0,18.0,55,0.00,,CLR,0.00,VWS V14.01,2013-04-18 17:28:00,
2013-04-18 13:33:00,71.1,53.6,29.96,SSW,209,9.0,13.0,54,0.00,,CLR,0.00,VWS V14.01,2013-04-18 17:33:00,
2013-04-18 13:38:00,71.2,53.2,29.95,SW,224,14.0,17.0,53,0.00,,CLR,0.00,VWS V14.01,2013-04-18 17:38:00,
2013-04-18 13:43:00,71.5,54.0,29.95,SSW,208,8.0,21.0,54,0.00,,CLR,0.00,VWS V14.01,2013-04-18 17:43:00,
2013-04-18 13:48:00,71.5,54.0,29.95,SW,235,10.0,21.0,54,0.00,,CLR,0.00,VWS V14.01,2013-04-18 17:48:00,
2013-04-18 13:53:00,71.6,54.1,29.95,SW,229,11.0,21.0,54,0.00,,CLR,0.00,VWS V14.01,2013-04-18 17:53:00,
2013-04-18 13:58:00,71.7,52.6,29.95,SW,226,10.0,21.0,51,0.00,,CLR,0.00,VWS V14.01,2013-04-18 17:58:00,
2013-04-18 14:03:00,71.3,53.3,29.94,South,187,9.0,14.0,53,0.00,,CLR,0.00,VWS V14.01,2013-04-18 18:03:00,
2013-04-18 14:08:00,71.4,53.9,29.94,SW,221,19.0,22.0,54,0.00,,CLR,0.00,VWS V14.01,2013-04-18 18:08:00,
2013-04-18 14:13:00,70.9,54.0,29.93,SW,218,12.0,22.0,55,0.00,,CLR,0.00,VWS V14.01,2013-04-18 18:13:00,
2013-04-18 14:18:00,71.0,53.5,29.93,South,178,6.0,22.0,54,0.00,,CLR,0.00,VWS V14.01,2013-04-18 18:18:00,
2013-04-18 14:24:00,71.3,54.3,29.93,SSW,208,12.0,22.0,55,0.00,,CLR,0.00,VWS V14.01,2013-04-18 18:24:00,
2013-04-18 14:29:00,71.3,53.8,29.93,SW,219,8.0,22.0,54,0.00,,CLR,0.00,VWS V14.01,2013-04-18 18:29:00,
2013-04-18 14:34:00,71.1,53.6,29.93,SW,229,11.0,16.0,54,0.00,,CLR,0.00,VWS V14.01,2013-04-18 18:34:00,
2013-04-18 14:39:00,70.6,53.7,29.93,WSW,239,17.0,17.0,55,0.00,,CLR,0.00,VWS V14.01,2013-04-18 18:39:00,
2013-04-18 14:44:00,70.1,53.2,29.93,SW,224,15.0,21.0,55,0.00,,CLR,0.00,VWS V14.01,2013-04-18 18:44:00,
2013-04-18 14:49:00,70.5,54.5,29.93,WSW,238,9.0,21.0,57,0.00,,CLR,0.00,VWS V14.01,2013-04-18 18:49:00,
2013-04-18 14:54:00,70.6,54.2,29.93,South,177,6.0,21.0,56,0.00,,CLR,0.00,VWS V14.01,2013-04-18 18:54:00,
2013-04-18 14:59:00,70.2,53.3,29.93,SSE,165,9.0,21.0,55,0.00,,CLR,0.00,VWS V14.01,2013-04-18 18:59:00,
2013-04-18 15:04:00,69.7,52.3,29.93,SW,221,9.0,17.0,54,0.00,,CLR,0.00,VWS V14.01,2013-04-18 19:04:00,
2013-04-18 15:09:00,69.4,52.5,29.93,SSW,197,9.0,18.0,55,0.00,,CLR,0.00,VWS V14.01,2013-04-18 19:09:00,
2013-04-18 15:14:00,69.4,53.0,29.93,SW,226,11.0,20.0,56,0.00,,CLR,0.00,VWS V14.01,2013-04-18 19:14:00,
2013-04-18 15:19:00,69.2,52.4,29.93,SW,223,16.0,22.0,55,0.00,,CLR,0.00,VWS V14.01,2013-04-18 19:19:00,
2013-04-18 15:24:00,69.2,52.8,29.92,SW,221,12.0,22.0,56,0.00,,CLR,0.00,VWS V14.01,2013-04-18 19:24:00,
2013-04-18 15:29:00,69.5,53.1,29.92,SW,231,14.0,22.0,56,0.00,,CLR,0.00,VWS V14.01,2013-04-18 19:29:00,
2013-04-18 15:34:00,69.5,53.1,29.93,SW,226,12.0,14.0,56,0.00,,CLR,0.00,VWS V14.01,2013-04-18 19:34:00,
2013-04-18 15:40:00,69.5,54.1,29.92,SW,232,12.0,17.0,58,0.00,,CLR,0.00,VWS V14.01,2013-04-18 19:40:00,
2013-04-18 15:45:00,69.5,54.1,29.92,SW,221,8.0,18.0,58,0.00,,CLR,0.00,VWS V14.01,2013-04-18 19:45:00,
2013-04-18 15:50:00,69.4,53.5,29.91,SW,224,14.0,20.0,57,0.00,,CLR,0.00,VWS V14.01,2013-04-18 19:50:00,
2013-04-18 15:55:00,69.3,53.4,29.91,SSW,204,8.0,20.0,57,0.00,,CLR,0.00,VWS V14.01,2013-04-18 19:55:00,
2013-04-18 16:00:00,69.2,53.8,29.91,SSW,207,13.0,20.0,58,0.00,,CLR,0.00,VWS V14.01,2013-04-18 20:00:00,
2013-04-18 16:05:00,69.2,53.3,29.91,SW,218,12.0,19.0,57,0.00,,CLR,0.00,VWS V14.01,2013-04-18 20:05:00,
2013-04-18 16:10:00,68.9,54.0,29.91,SW,216,11.0,20.0,59,0.00,,CLR,0.00,VWS V14.01,2013-04-18 20:10:00,
2013-04-18 16:16:00,69.2,54.3,29.90,SW,228,11.0,21.0,59,0.00,,CLR,0.00,VWS V14.01,2013-04-18 20:16:00,
2013-04-18 16:21:00,69.1,54.2,29.90,SSW,194,12.0,21.0,59,0.00,,CLR,0.00,VWS V14.01,2013-04-18 20:21:00,
2013-04-18 16:26:00,68.9,54.0,29.91,SW,215,11.0,21.0,59,0.00,,CLR,0.00,VWS V14.01,2013-04-18 20:26:00,
2013-04-18 16:31:00,68.1,54.2,29.90,SW,223,14.0,22.0,61,0.00,,CLR,0.00,VWS V14.01,2013-04-18 20:31:00,
2013-04-18 16:36:00,67.8,54.3,29.90,SSW,205,10.0,20.0,62,0.00,,CLR,0.00,VWS V14.01,2013-04-18 20:36:00,
2013-04-18 16:42:00,67.9,55.3,29.90,SSW,208,6.0,20.0,64,0.00,,CLR,0.00,VWS V14.01,2013-04-18 20:42:00,
2013-04-18 16:47:00,68.2,55.1,29.90,SSW,212,10.0,20.0,63,0.00,,CLR,0.00,VWS V14.01,2013-04-18 20:47:00,
2013-04-18 16:52:00,68.2,54.7,29.90,SW,217,12.0,20.0,62,0.00,,CLR,0.00,VWS V14.01,2013-04-18 20:52:00,
2013-04-18 16:57:00,67.6,55.0,29.90,SSW,200,10.0,20.0,64,0.00,,CLR,0.00,VWS V14.01,2013-04-18 20:57:00,
2013-04-18 17:02:00,67.5,54.9,29.91,SW,236,12.0,20.0,64,0.00,,CLR,0.00,VWS V14.01,2013-04-18 21:02:00,
2013-04-18 17:07:00,67.1,55.0,29.90,SW,218,8.0,22.0,65,0.00,,CLR,0.00,VWS V14.01,2013-04-18 21:07:00,
2013-04-18 17:12:00,66.7,55.0,29.90,SW,235,23.0,23.0,66,0.00,,CLR,0.00,VWS V14.01,2013-04-18 21:12:00,
2013-04-18 17:17:00,66.4,55.5,29.89,SSW,210,8.0,23.0,68,0.00,,CLR,0.00,VWS V14.01,2013-04-18 21:17:00,
2013-04-18 17:22:00,66.4,55.5,29.88,SSE,148,14.0,23.0,68,0.00,,CLR,0.00,VWS V14.01,2013-04-18 21:22:00,
2013-04-18 17:27:00,65.9,55.0,29.88,SW,222,13.0,23.0,68,0.00,,CLR,0.00,VWS V14.01,2013-04-18 21:27:00,
2013-04-18 17:32:00,65.6,55.2,29.88,SW,221,15.0,23.0,69,0.00,,CLR,0.00,VWS V14.01,2013-04-18 21:32:00,
2013-04-18 17:37:00,65.2,55.2,29.88,South,189,12.0,24.0,70,0.00,,CLR,0.00,VWS V14.01,2013-04-18 21:37:00,
2013-04-18 17:42:00,64.8,55.2,29.88,SW,232,14.0,24.0,71,0.00,,CLR,0.00,VWS V14.01,2013-04-18 21:42:00,
2013-04-18 17:47:00,64.4,55.2,29.87,SW,215,19.0,25.0,72,0.00,,CLR,0.00,VWS V14.01,2013-04-18 21:47:00,
2013-04-18 17:52:00,64.3,55.5,29.87,SSW,210,17.0,25.0,73,0.00,,CLR,0.00,VWS V14.01,2013-04-18 21:52:00,
2013-04-18 17:58:00,64.2,55.4,29.87,SW,223,18.0,25.0,73,0.00,,CLR,0.00,VWS V14.01,2013-04-18 21:58:00,
2013-04-18 18:03:00,64.1,55.3,29.87,SW,221,14.0,14.0,73,0.00,,CLR,0.00,VWS V14.01,2013-04-18 22:03:00,
2013-04-18 18:08:00,64.1,55.7,29.87,SW,226,18.0,25.0,74,0.00,,CLR,0.00,VWS V14.01,2013-04-18 22:08:00,
2013-04-18 18:13:00,63.9,55.5,29.87,SW,231,16.0,25.0,74,0.00,,CLR,0.00,VWS V14.01,2013-04-18 22:13:00,
2013-04-18 18:18:00,63.7,55.3,29.87,SW,228,22.0,25.0,74,0.00,,CLR,0.00,VWS V14.01,2013-04-18 22:18:00,
2013-04-18 18:23:00,63.3,55.2,29.88,SW,236,14.0,28.0,75,0.00,,CLR,0.00,VWS V14.01,2013-04-18 22:23:00,
2013-04-18 18:28:00,63.0,55.3,29.87,SW,224,17.0,28.0,76,0.00,,CLR,0.00,VWS V14.01,2013-04-18 22:28:00,
2013-04-18 18:33:00,62.9,55.6,29.87,SW,226,11.0,12.0,77,0.00,,BKN026,0.00,VWS V14.01,2013-04-18 22:33:00,
2013-04-18 18:38:00,62.7,55.4,29.87,WSW,238,11.0,20.0,77,0.00,,BKN026,0.00,VWS V14.01,2013-04-18 22:38:00,
2013-04-18 18:44:00,62.5,55.6,29.87,SW,219,13.0,20.0,78,0.00,,BKN026,0.00,VWS V14.01,2013-04-18 22:44:00,
2013-04-18 18:49:00,62.4,55.5,29.87,SW,218,10.0,20.0,78,0.00,,BKN026,0.00,VWS V14.01,2013-04-18 22:49:00,
2013-04-18 18:54:00,62.3,55.7,29.86,WSW,243,14.0,20.0,79,0.00,,BKN026,0.00,VWS V14.01,2013-04-18 22:54:00,
2013-04-18 18:59:00,62.2,55.6,29.87,SW,228,12.0,20.0,79,0.00,,BKN026,0.00,VWS V14.01,2013-04-18 22:59:00,
2013-04-18 19:04:00,62.1,55.5,29.88,WSW,256,9.0,19.0,79,0.00,,BKN026,0.00,VWS V14.01,2013-04-18 23:04:00,
2013-04-18 19:09:00,62.0,55.8,29.88,SW,229,16.0,19.0,80,0.00,,BKN026,0.00,VWS V14.01,2013-04-18 23:09:00,
2013-04-18 19:14:00,62.0,55.8,29.88,SW,224,7.0,19.0,80,0.00,,BKN026,0.00,VWS V14.01,2013-04-18 23:14:00,
2013-04-18 19:19:00,62.0,55.8,29.87,SSW,203,9.0,19.0,80,0.00,,BKN026,0.00,VWS V14.01,2013-04-18 23:19:00,
2013-04-18 19:24:00,61.9,56.0,29.88,WSW,243,11.0,19.0,81,0.00,,BKN026,0.00,VWS V14.01,2013-04-18 23:24:00,
2013-04-18 19:30:00,61.9,56.0,29.88,WSW,245,10.0,19.0,81,0.00,,BKN026,0.00,VWS V14.01,2013-04-18 23:30:00,
2013-04-18 19:35:00,61.9,56.0,29.88,WSW,242,14.0,17.0,81,0.00,,OVC020,0.00,VWS V14.01,2013-04-18 23:35:00,
2013-04-18 19:40:00,61.8,55.9,29.87,SW,219,12.0,17.0,81,0.00,,OVC020,0.00,VWS V14.01,2013-04-18 23:40:00,
2013-04-18 19:45:00,61.7,56.2,29.87,WSW,250,16.0,19.0,82,0.00,,OVC020,0.00,VWS V14.01,2013-04-18 23:45:00,
2013-04-18 19:50:00,61.8,56.2,29.87,SW,221,13.0,19.0,82,0.00,,OVC020,0.00,VWS V14.01,2013-04-18 23:50:00,
2013-04-18 19:55:00,61.7,56.2,29.86,South,174,7.0,19.0,82,0.00,,OVC020,0.00,VWS V14.01,2013-04-18 23:55:00,
2013-04-18 20:00:00,61.6,56.1,29.86,SSW,205,8.0,19.0,82,0.00,,OVC020,0.00,VWS V14.01,2013-04-19 00:00:00,
2013-04-18 20:05:00,61.7,56.2,29.86,SSW,212,8.0,14.0,82,0.00,,OVC020,0.00,VWS V14.01,2013-04-19 00:05:00,
2013-04-18 20:10:00,61.7,56.2,29.86,WSW,246,15.0,17.0,82,0.00,,OVC020,0.00,VWS V14.01,2013-04-19 00:10:00,
2013-04-18 20:15:00,61.7,56.5,29.86,WSW,240,13.0,23.0,83,0.00,,OVC020,0.00,VWS V14.01,2013-04-19 00:15:00,
2013-04-18 20:21:00,61.7,56.5,29.85,SW,218,11.0,23.0,83,0.00,,OVC020,0.00,VWS V14.01,2013-04-19 00:21:00,
2013-04-18 20:26:00,61.8,56.6,29.85,SSW,205,13.0,23.0,83,0.00,,OVC020,0.00,VWS V14.01,2013-04-19 00:26:00,
2013-04-18 20:31:00,62.0,56.8,29.85,SW,224,14.0,23.0,83,0.00,,OVC020,0.00,VWS V14.01,2013-04-19 00:31:00,
2013-04-18 20:36:00,62.0,56.8,29.85,SW,215,14.0,16.0,83,0.00,,OVC020,0.00,VWS V14.01,2013-04-19 00:36:00,
2013-04-18 20:41:00,62.0,56.8,29.85,SW,225,13.0,20.0,83,0.00,,OVC020,0.00,VWS V14.01,2013-04-19 00:41:00,
2013-04-18 20:46:00,62.2,57.0,29.85,SSW,203,10.0,20.0,83,0.00,,OVC020,0.00,VWS V14.01,2013-04-19 00:46:00,
2013-04-18 20:51:00,62.2,57.0,29.85,SW,221,17.0,20.0,83,0.00,,OVC020,0.00,VWS V14.01,2013-04-19 00:51:00,
2013-04-18 20:56:00,62.4,57.2,29.85,SSW,205,10.0,20.0,83,0.00,,OVC020,0.00,VWS V14.01,2013-04-19 00:56:00,
2013-04-18 21:02:00,62.4,57.2,29.85,SW,226,13.0,20.0,83,0.00,,OVC020,0.00,VWS V14.01,2013-04-19 01:02:00,
2013-04-18 21:07:00,62.5,57.3,29.85,SW,229,16.0,16.0,83,0.00,,OVC020,0.00,VWS V14.01,2013-04-19 01:07:00,
2013-04-18 21:12:00,62.8,57.2,29.85,SW,229,13.0,19.0,82,0.00,,OVC020,0.00,VWS V14.01,2013-04-19 01:12:00,
2013-04-18 21:17:00,62.9,57.3,29.85,WSW,239,15.0,19.0,82,0.00,,OVC020,0.00,VWS V14.01,2013-04-19 01:17:00,
2013-04-18 21:22:00,63.0,57.4,29.85,SW,220,9.0,21.0,82,0.00,,OVC020,0.00,VWS V14.01,2013-04-19 01:22:00,
2013-04-18 21:27:00,63.1,57.5,29.84,SW,231,17.0,23.0,82,0.00,,OVC020,0.00,VWS V14.01,2013-04-19 01:27:00,
2013-04-18 21:32:00,63.1,57.5,29.85,SW,222,14.0,23.0,82,0.00,,OVC020,0.00,VWS V14.01,2013-04-19 01:32:00,
2013-04-18 21:37:00,63.2,57.6,29.85,SW,221,14.0,17.0,82,0.00,,OVC020,0.00,VWS V14.01,2013-04-19 01:37:00,
2013-04-18 21:43:00,63.3,57.7,29.85,SW,224,11.0,20.0,82,0.00,,OVC020,0.00,VWS V14.01,2013-04-19 01:43:00,
2013-04-18 21:48:00,63.3,57.7,29.85,SW,224,11.0,22.0,82,0.00,,OVC022,0.00,VWS V14.01,2013-04-19 01:48:00,
2013-04-18 21:53:00,63.4,57.8,29.84,SW,224,14.0,22.0,82,0.00,,OVC022,0.00,VWS V14.01,2013-04-19 01:53:00,
2013-04-18 21:58:00,63.4,57.8,29.85,SSW,205,11.0,22.0,82,0.00,,OVC022,0.00,VWS V14.01,2013-04-19 01:58:00,
2013-04-18 22:03:00,63.6,57.7,29.85,SW,232,15.0,21.0,81,0.00,,OVC022,0.00,VWS V14.01,2013-04-19 02:03:00,
2013-04-18 22:08:00,63.7,57.8,29.85,SSW,208,10.0,26.0,81,0.00,,OVC022,0.00,VWS V14.01,2013-04-19 02:08:00,
2013-04-18 22:13:00,63.8,57.9,29.85,SW,229,12.0,26.0,81,0.00,,OVC022,0.00,VWS V14.01,2013-04-19 02:13:00,
2013-04-18 22:19:00,63.7,57.8,29.84,SW,215,10.0,26.0,81,0.00,,OVC022,0.00,VWS V14.01,2013-04-19 02:19:00,
2013-04-18 22:24:00,63.7,57.8,29.84,SW,229,11.0,26.0,81,0.00,,OVC022,0.00,VWS V14.01,2013-04-19 02:24:00,
2013-04-18 22:29:00,63.6,57.7,29.84,SSW,210,11.0,26.0,81,0.00,,OVC022,0.00,VWS V14.01,2013-04-19 02:29:00,
2013-04-18 22:34:00,63.7,57.8,29.84,SW,222,15.0,18.0,81,0.00,,OVC022,0.00,VWS V14.01,2013-04-19 02:34:00,
2013-04-18 22:39:00,63.8,57.9,29.84,WSW,248,13.0,18.0,81,0.00,,OVC022,0.00,VWS V14.01,2013-04-19 02:39:00,
2013-04-18 22:44:00,63.9,58.0,29.83,SW,229,13.0,20.0,81,0.00,,OVC022,0.00,VWS V14.01,2013-04-19 02:44:00,
2013-04-18 22:49:00,63.9,58.0,29.83,SSW,203,10.0,20.0,81,0.00,,OVC024,0.00,VWS V14.01,2013-04-19 02:49:00,
2013-04-18 22:54:00,63.8,57.9,29.83,SW,221,12.0,20.0,81,0.00,,OVC024,0.00,VWS V14.01,2013-04-19 02:54:00,
2013-04-18 23:00:00,63.8,57.9,29.83,SW,235,14.0,20.0,81,0.00,,OVC024,0.00,VWS V14.01,2013-04-19 03:00:00,
2013-04-18 23:05:00,63.9,58.0,29.83,SW,233,13.0,16.0,81,0.00,,OVC024,0.00,VWS V14.01,2013-04-19 03:05:00,
2013-04-18 23:10:00,63.9,58.0,29.83,SW,226,14.0,18.0,81,0.00,,OVC024,0.00,VWS V14.01,2013-04-19 03:10:00,
2013-04-18 23:15:00,63.9,58.0,29.83,SW,215,7.0,18.0,81,0.00,,OVC024,0.00,VWS V14.01,2013-04-19 03:15:00,
2013-04-18 23:20:00,63.9,58.0,29.83,SW,219,13.0,20.0,81,0.00,,OVC024,0.00,VWS V14.01,2013-04-19 03:20:00,
2013-04-18 23:25:00,64.0,58.1,29.83,SW,232,11.0,20.0,81,0.00,,OVC024,0.00,VWS V14.01,2013-04-19 03:25:00,
2013-04-18 23:30:00,63.9,58.0,29.83,SW,229,12.0,20.0,81,0.00,,OVC024,0.00,VWS V14.01,2013-04-19 03:30:00,
2013-04-18 23:35:00,63.9,58.0,29.82,WSW,250,7.0,16.0,81,0.00,,OVC024,0.00,VWS V14.01,2013-04-19 03:35:00,
2013-04-18 23:41:00,63.9,58.0,29.83,WSW,238,8.0,19.0,81,0.00,,OVC024,0.00,VWS V14.01,2013-04-19 03:41:00,
2013-04-18 23:46:00,63.9,58.0,29.82,SW,235,13.0,19.0,81,0.00,,OVC024,0.00,VWS V14.01,2013-04-19 03:46:00,
2013-04-18 23:51:00,63.9,58.0,29.83,SSE,160,7.0,19.0,81,0.00,,OVC024,0.00,VWS V14.01,2013-04-19 03:51:00,
2013-04-18 23:56:00,63.9,58.0,29.83,SW,224,11.0,19.0,81,0.00,,OVC024,0.00,VWS V14.01,2013-04-19 03:56:00,